Year,Month,Day,Hour,Minute,Value (Times are PST for temperature in C)
2012,05,19,00,00,5.50
2012,05,19,00,01,5.40
2012,05,19,00,02,5.40
2012,05,19,00,03,5.30
2012,05,19,00,04,5.30
2012,05,19,00,05,5.30
2012,05,19,00,06,5.30
2012,05,19,00,07,5.30
2012,05,19,00,08,5.30
2012,05,19,00,09,5.30
2012,05,19,00,10,5.30
2012,05,19,00,11,5.30
2012,05,19,00,12,5.30
2012,05,19,00,13,5.30
2012,05,19,00,14,5.30
2012,05,19,00,15,5.30
2012,05,19,00,16,5.30
2012,05,19,00,17,5.30
2012,05,19,00,18,5.30
2012,05,19,00,19,5.30
2012,05,19,00,20,5.30
2012,05,19,00,21,5.30
2012,05,19,00,22,5.20
2012,05,19,00,23,5.20
2012,05,19,00,24,5.20
2012,05,19,00,25,5.20
2012,05,19,00,26,5.10
2012,05,19,00,27,5.10
2012,05,19,00,28,5.10
2012,05,19,00,29,5.00
2012,05,19,00,30,4.90
2012,05,19,00,31,4.90
2012,05,19,00,32,4.80
2012,05,19,00,33,4.80
2012,05,19,00,34,4.70
2012,05,19,00,35,4.60
2012,05,19,00,36,4.60
2012,05,19,00,37,4.60
2012,05,19,00,38,4.60
2012,05,19,00,39,4.50
2012,05,19,00,40,4.50
2012,05,19,00,41,4.50
2012,05,19,00,42,4.50
2012,05,19,00,43,4.50
2012,05,19,00,44,4.50
2012,05,19,00,45,4.60
2012,05,19,00,46,4.60
2012,05,19,00,47,4.60
2012,05,19,00,48,4.60
2012,05,19,00,49,4.60
2012,05,19,00,50,4.60
2012,05,19,00,51,4.60
2012,05,19,00,52,4.60
2012,05,19,00,53,4.60
2012,05,19,00,54,4.60
2012,05,19,00,55,4.60
2012,05,19,00,56,4.60
2012,05,19,00,57,4.60
2012,05,19,00,58,4.60
2012,05,19,00,59,4.50
2012,05,19,01,00,4.50
2012,05,19,01,01,4.50
2012,05,19,01,02,4.50
2012,05,19,01,03,4.40
2012,05,19,01,04,4.40
2012,05,19,01,05,4.30
2012,05,19,01,06,4.30
2012,05,19,01,07,4.20
2012,05,19,01,08,4.20
2012,05,19,01,09,4.10
2012,05,19,01,10,4.00
2012,05,19,01,11,4.00
2012,05,19,01,12,4.00
2012,05,19,01,13,3.90
2012,05,19,01,14,3.90
2012,05,19,01,15,3.90
2012,05,19,01,16,3.80
2012,05,19,01,17,3.80
2012,05,19,01,18,3.80
2012,05,19,01,19,3.80
2012,05,19,01,20,3.80
2012,05,19,01,21,3.70
2012,05,19,01,22,3.70
2012,05,19,01,23,3.70
2012,05,19,01,24,3.70
2012,05,19,01,25,3.60
2012,05,19,01,26,3.60
2012,05,19,01,27,3.60
2012,05,19,01,28,3.60
2012,05,19,01,29,3.60
2012,05,19,01,30,3.60
2012,05,19,01,31,3.60
2012,05,19,01,32,3.60
2012,05,19,01,33,3.60
2012,05,19,01,34,3.60
2012,05,19,01,35,3.60
2012,05,19,01,36,3.50
2012,05,19,01,37,3.60
2012,05,19,01,38,3.60
2012,05,19,01,39,3.60
2012,05,19,01,40,3.60
2012,05,19,01,41,3.60
2012,05,19,01,42,3.60
2012,05,19,01,43,3.60
2012,05,19,01,44,3.60
2012,05,19,01,45,3.60
2012,05,19,01,46,3.60
2012,05,19,01,47,3.60
2012,05,19,01,48,3.60
2012,05,19,01,49,3.60
2012,05,19,01,50,3.50
2012,05,19,01,51,3.50
2012,05,19,01,52,3.50
2012,05,19,01,53,3.50
2012,05,19,01,54,3.40
2012,05,19,01,55,3.40
2012,05,19,01,56,3.40
2012,05,19,01,57,3.40
2012,05,19,01,58,3.30
2012,05,19,01,59,3.30
2012,05,19,02,00,3.30
2012,05,19,02,01,3.30
2012,05,19,02,02,3.30
2012,05,19,02,03,3.30
2012,05,19,02,04,3.30
2012,05,19,02,05,3.30
2012,05,19,02,06,3.20
2012,05,19,02,07,3.20
2012,05,19,02,08,3.20
2012,05,19,02,09,3.20
2012,05,19,02,10,3.20
2012,05,19,02,11,3.20
2012,05,19,02,12,3.20
2012,05,19,02,13,3.30
2012,05,19,02,14,3.30
2012,05,19,02,15,3.30
2012,05,19,02,16,3.30
2012,05,19,02,17,3.30
2012,05,19,02,18,3.30
2012,05,19,02,19,3.30
2012,05,19,02,20,3.30
2012,05,19,02,21,3.30
2012,05,19,02,22,3.30
2012,05,19,02,23,3.30
2012,05,19,02,24,3.30
2012,05,19,02,25,3.30
2012,05,19,02,26,3.30
2012,05,19,02,27,3.30
2012,05,19,02,28,3.30
2012,05,19,02,29,3.30
2012,05,19,02,30,3.30
2012,05,19,02,31,3.20
2012,05,19,02,32,3.20
2012,05,19,02,33,3.20
2012,05,19,02,34,3.20
2012,05,19,02,35,3.20
2012,05,19,02,36,3.10
2012,05,19,02,37,3.10
2012,05,19,02,38,3.10
2012,05,19,02,39,3.10
2012,05,19,02,40,3.10
2012,05,19,02,41,3.10
2012,05,19,02,42,3.10
2012,05,19,02,43,3.10
2012,05,19,02,44,3.10
2012,05,19,02,45,3.10
2012,05,19,02,46,3.10
2012,05,19,02,47,3.00
2012,05,19,02,48,2.90
2012,05,19,02,49,2.90
2012,05,19,02,50,2.90
2012,05,19,02,51,2.90
2012,05,19,02,52,2.90
2012,05,19,02,53,2.90
2012,05,19,02,54,2.90
2012,05,19,02,55,2.90
2012,05,19,02,56,2.90
2012,05,19,02,57,2.90
2012,05,19,02,58,2.80
2012,05,19,02,59,2.80
2012,05,19,03,00,2.80
2012,05,19,03,01,2.80
2012,05,19,03,02,2.80
2012,05,19,03,03,2.80
2012,05,19,03,04,2.80
2012,05,19,03,05,2.80
2012,05,19,03,06,2.80
2012,05,19,03,07,2.80
2012,05,19,03,08,2.80
2012,05,19,03,09,2.80
2012,05,19,03,10,2.70
2012,05,19,03,11,2.70
2012,05,19,03,12,2.70
2012,05,19,03,13,2.70
2012,05,19,03,14,2.70
2012,05,19,03,15,2.70
2012,05,19,03,16,2.60
2012,05,19,03,17,2.60
2012,05,19,03,18,2.60
2012,05,19,03,19,2.60
2012,05,19,03,20,2.60
2012,05,19,03,21,2.60
2012,05,19,03,22,2.60
2012,05,19,03,23,2.60
2012,05,19,03,24,2.60
2012,05,19,03,25,2.60
2012,05,19,03,26,2.60
2012,05,19,03,27,2.70
2012,05,19,03,28,2.70
2012,05,19,03,29,2.70
2012,05,19,03,30,2.70
2012,05,19,03,31,2.70
2012,05,19,03,32,2.70
2012,05,19,03,33,2.70
2012,05,19,03,34,2.70
2012,05,19,03,35,2.70
2012,05,19,03,36,2.70
2012,05,19,03,37,2.70
2012,05,19,03,38,2.70
2012,05,19,03,39,2.70
2012,05,19,03,40,2.70
2012,05,19,03,41,2.70
2012,05,19,03,42,2.70
2012,05,19,03,43,2.70
2012,05,19,03,44,2.70
2012,05,19,03,45,2.70
2012,05,19,03,46,2.70
2012,05,19,03,47,2.70
2012,05,19,03,48,2.70
2012,05,19,03,49,2.70
2012,05,19,03,50,2.60
2012,05,19,03,51,2.60
2012,05,19,03,52,2.60
2012,05,19,03,53,2.60
2012,05,19,03,54,2.60
2012,05,19,03,55,2.60
2012,05,19,03,56,2.50
2012,05,19,03,57,2.50
2012,05,19,03,58,2.50
2012,05,19,03,59,2.50
2012,05,19,04,00,2.40
2012,05,19,04,01,2.40
2012,05,19,04,02,2.40
2012,05,19,04,03,2.40
2012,05,19,04,04,2.40
2012,05,19,04,05,2.40
2012,05,19,04,06,2.40
2012,05,19,04,07,2.40
2012,05,19,04,08,2.30
2012,05,19,04,09,2.40
2012,05,19,04,10,2.30
2012,05,19,04,11,2.30
2012,05,19,04,12,2.30
2012,05,19,04,13,2.30
2012,05,19,04,14,2.30
2012,05,19,04,15,2.30
2012,05,19,04,16,2.30
2012,05,19,04,17,2.30
2012,05,19,04,18,2.30
2012,05,19,04,19,2.30
2012,05,19,04,20,2.30
2012,05,19,04,21,2.20
2012,05,19,04,22,2.20
2012,05,19,04,23,2.20
2012,05,19,04,24,2.20
2012,05,19,04,25,2.20
2012,05,19,04,26,2.20
2012,05,19,04,27,2.20
2012,05,19,04,28,2.20
2012,05,19,04,29,2.20
2012,05,19,04,30,2.20
2012,05,19,04,31,2.20
2012,05,19,04,32,2.20
2012,05,19,04,33,2.20
2012,05,19,04,34,2.20
2012,05,19,04,35,2.20
2012,05,19,04,36,2.20
2012,05,19,04,37,2.20
2012,05,19,04,38,2.20
2012,05,19,04,39,2.20
2012,05,19,04,40,2.30
2012,05,19,04,41,2.30
2012,05,19,04,42,2.30
2012,05,19,04,43,2.30
2012,05,19,04,44,2.30
2012,05,19,04,45,2.30
2012,05,19,04,46,2.30
2012,05,19,04,47,2.20
2012,05,19,04,48,2.20
2012,05,19,04,49,2.20
2012,05,19,04,50,2.20
2012,05,19,04,51,2.20
2012,05,19,04,52,2.20
2012,05,19,04,53,2.20
2012,05,19,04,54,2.20
2012,05,19,04,55,2.20
2012,05,19,04,56,2.20
2012,05,19,04,57,2.20
2012,05,19,04,58,2.20
2012,05,19,04,59,2.20
2012,05,19,05,00,2.20
2012,05,19,05,01,2.20
2012,05,19,05,02,2.10
2012,05,19,05,03,2.10
2012,05,19,05,04,2.10
2012,05,19,05,05,2.10
2012,05,19,05,06,2.10
2012,05,19,05,07,2.00
2012,05,19,05,08,2.00
2012,05,19,05,09,2.00
2012,05,19,05,10,2.00
2012,05,19,05,11,2.00
2012,05,19,05,12,2.00
2012,05,19,05,13,2.00
2012,05,19,05,14,2.00
2012,05,19,05,15,2.00
2012,05,19,05,16,2.00
2012,05,19,05,17,2.00
2012,05,19,05,18,2.00
2012,05,19,05,19,2.00
2012,05,19,05,20,2.00
2012,05,19,05,21,2.00
2012,05,19,05,22,2.00
2012,05,19,05,23,2.10
2012,05,19,05,24,2.10
2012,05,19,05,25,2.10
2012,05,19,05,26,2.10
2012,05,19,05,27,2.10
2012,05,19,05,28,2.00
2012,05,19,05,29,2.00
2012,05,19,05,30,2.00
2012,05,19,05,31,2.00
2012,05,19,05,32,2.00
2012,05,19,05,33,2.00
2012,05,19,05,34,2.00
2012,05,19,05,35,2.00
2012,05,19,05,36,2.00
2012,05,19,05,37,2.00
2012,05,19,05,38,2.10
2012,05,19,05,39,2.10
2012,05,19,05,40,2.10
2012,05,19,05,41,2.10
2012,05,19,05,42,2.20
2012,05,19,05,43,2.20
2012,05,19,05,44,2.20
2012,05,19,05,45,2.20
2012,05,19,05,46,2.20
2012,05,19,05,47,2.20
2012,05,19,05,48,2.20
2012,05,19,05,49,2.20
2012,05,19,05,50,2.20
2012,05,19,05,51,2.20
2012,05,19,05,52,2.20
2012,05,19,05,53,2.20
2012,05,19,05,54,2.20
2012,05,19,05,55,2.20
2012,05,19,05,56,2.20
2012,05,19,05,57,2.20
2012,05,19,05,58,2.10
2012,05,19,05,59,2.10
2012,05,19,06,00,2.10
2012,05,19,06,01,2.20
2012,05,19,06,02,2.20
2012,05,19,06,03,2.20
2012,05,19,06,04,2.20
2012,05,19,06,05,2.20
2012,05,19,06,06,2.20
2012,05,19,06,07,2.20
2012,05,19,06,08,2.20
2012,05,19,06,09,2.20
2012,05,19,06,10,2.20
2012,05,19,06,11,2.30
2012,05,19,06,12,2.30
2012,05,19,06,13,2.30
2012,05,19,06,14,2.30
2012,05,19,06,15,2.30
2012,05,19,06,16,2.40
2012,05,19,06,17,2.40
2012,05,19,06,18,2.40
2012,05,19,06,19,2.40
2012,05,19,06,20,2.40
2012,05,19,06,21,2.40
2012,05,19,06,22,2.40
2012,05,19,06,23,2.40
2012,05,19,06,24,2.50
2012,05,19,06,25,2.50
2012,05,19,06,26,2.60
2012,05,19,06,27,2.60
2012,05,19,06,28,2.60
2012,05,19,06,29,2.70
2012,05,19,06,30,2.70
2012,05,19,06,31,2.70
2012,05,19,06,32,2.70
2012,05,19,06,33,2.70
2012,05,19,06,34,2.70
2012,05,19,06,35,2.70
2012,05,19,06,36,2.80
2012,05,19,06,37,2.80
2012,05,19,06,38,2.80
2012,05,19,06,39,2.80
2012,05,19,06,40,2.80
2012,05,19,06,41,2.80
2012,05,19,06,42,2.90
2012,05,19,06,43,2.90
2012,05,19,06,44,2.90
2012,05,19,06,45,2.90
2012,05,19,06,46,2.90
2012,05,19,06,47,3.00
2012,05,19,06,48,3.10
2012,05,19,06,49,3.10
2012,05,19,06,50,3.10
2012,05,19,06,51,3.20
2012,05,19,06,52,3.30
2012,05,19,06,53,3.30
2012,05,19,06,54,3.30
2012,05,19,06,55,3.40
2012,05,19,06,56,3.50
2012,05,19,06,57,3.50
2012,05,19,06,58,3.60
2012,05,19,06,59,3.60
2012,05,19,07,00,3.70
2012,05,19,07,01,3.70
2012,05,19,07,02,3.80
2012,05,19,07,03,3.80
2012,05,19,07,04,3.90
2012,05,19,07,05,4.00
2012,05,19,07,06,4.10
2012,05,19,07,07,4.20
2012,05,19,07,08,4.30
2012,05,19,07,09,4.40
2012,05,19,07,10,4.50
2012,05,19,07,11,4.60
2012,05,19,07,12,4.70
2012,05,19,07,13,4.80
2012,05,19,07,14,4.90
2012,05,19,07,15,5.10
2012,05,19,07,16,5.10
2012,05,19,07,17,5.30
2012,05,19,07,18,5.50
2012,05,19,07,19,5.70
2012,05,19,07,20,5.80
2012,05,19,07,21,6.00
2012,05,19,07,22,6.10
2012,05,19,07,23,6.30
2012,05,19,07,24,6.40
2012,05,19,07,25,6.60
2012,05,19,07,26,6.70
2012,05,19,07,27,6.80
2012,05,19,07,28,6.90
2012,05,19,07,29,7.00
2012,05,19,07,30,7.00
2012,05,19,07,31,7.10
2012,05,19,07,32,7.10
2012,05,19,07,33,7.10
2012,05,19,07,34,7.20
2012,05,19,07,35,7.20
2012,05,19,07,36,7.20
2012,05,19,07,37,7.30
2012,05,19,07,38,7.30
2012,05,19,07,39,7.30
2012,05,19,07,40,7.40
2012,05,19,07,41,7.40
2012,05,19,07,42,7.50
2012,05,19,07,43,7.60
2012,05,19,07,44,7.60
2012,05,19,07,45,7.70
2012,05,19,07,46,7.80
2012,05,19,07,47,7.80
2012,05,19,07,48,7.90
2012,05,19,07,49,8.00
2012,05,19,07,50,8.10
2012,05,19,07,51,8.20
2012,05,19,07,52,8.30
2012,05,19,07,53,8.40
2012,05,19,07,54,8.40
2012,05,19,07,55,8.40
2012,05,19,07,56,8.50
2012,05,19,07,57,8.50
2012,05,19,07,58,8.50
2012,05,19,07,59,8.60
2012,05,19,08,00,8.60
2012,05,19,08,01,8.70
2012,05,19,08,02,8.70
2012,05,19,08,03,8.80
2012,05,19,08,04,8.80
2012,05,19,08,05,8.90
2012,05,19,08,06,9.00
2012,05,19,08,07,9.00
2012,05,19,08,08,9.10
2012,05,19,08,09,9.20
2012,05,19,08,10,9.30
2012,05,19,08,11,9.40
2012,05,19,08,12,9.50
2012,05,19,08,13,9.50
2012,05,19,08,14,9.60
2012,05,19,08,15,9.70
2012,05,19,08,16,9.70
2012,05,19,08,17,9.70
2012,05,19,08,18,9.70
2012,05,19,08,19,9.80
2012,05,19,08,20,9.80
2012,05,19,08,21,9.80
2012,05,19,08,22,9.90
2012,05,19,08,23,10.00
2012,05,19,08,24,10.10
2012,05,19,08,25,10.20
2012,05,19,08,26,10.30
2012,05,19,08,27,10.40
2012,05,19,08,28,10.40
2012,05,19,08,29,10.50
2012,05,19,08,30,10.60
2012,05,19,08,31,10.60
2012,05,19,08,32,10.70
2012,05,19,08,33,10.70
2012,05,19,08,34,10.60
2012,05,19,08,35,10.60
2012,05,19,08,36,10.60
2012,05,19,08,37,10.60
2012,05,19,08,38,10.60
2012,05,19,08,39,10.70
2012,05,19,08,40,10.80
2012,05,19,08,41,10.90
2012,05,19,08,42,11.00
2012,05,19,08,43,11.10
2012,05,19,08,44,11.10
2012,05,19,08,45,11.10
2012,05,19,08,46,10.90
2012,05,19,08,47,10.90
2012,05,19,08,48,10.90
2012,05,19,08,49,11.00
2012,05,19,08,50,11.10
2012,05,19,08,51,11.10
2012,05,19,08,52,11.10
2012,05,19,08,53,11.10
2012,05,19,08,54,11.10
2012,05,19,08,55,11.10
2012,05,19,08,56,11.10
2012,05,19,08,57,11.20
2012,05,19,08,58,11.30
2012,05,19,08,59,11.40
2012,05,19,09,00,11.40
2012,05,19,09,01,11.50
2012,05,19,09,02,11.60
2012,05,19,09,03,11.60
2012,05,19,09,04,11.70
2012,05,19,09,05,11.80
2012,05,19,09,06,11.90
2012,05,19,09,07,12.00
2012,05,19,09,08,12.10
2012,05,19,09,09,12.30
2012,05,19,09,10,12.30
2012,05,19,09,11,12.40
2012,05,19,09,12,12.40
2012,05,19,09,13,12.40
2012,05,19,09,14,12.50
2012,05,19,09,15,12.50
2012,05,19,09,16,12.60
2012,05,19,09,17,12.80
2012,05,19,09,18,12.90
2012,05,19,09,19,12.90
2012,05,19,09,20,13.00
2012,05,19,09,21,13.20
2012,05,19,09,22,13.30
2012,05,19,09,23,13.30
2012,05,19,09,24,13.30
2012,05,19,09,25,13.30
2012,05,19,09,26,13.40
2012,05,19,09,27,13.40
2012,05,19,09,28,13.40
2012,05,19,09,29,13.40
2012,05,19,09,30,13.20
2012,05,19,09,31,13.20
2012,05,19,09,32,13.20
2012,05,19,09,33,13.30
2012,05,19,09,34,13.30
2012,05,19,09,35,13.30
2012,05,19,09,36,13.30
2012,05,19,09,37,13.20
2012,05,19,09,38,13.10
2012,05,19,09,39,13.00
2012,05,19,09,40,12.90
2012,05,19,09,41,12.80
2012,05,19,09,42,12.80
2012,05,19,09,43,12.70
2012,05,19,09,44,12.70
2012,05,19,09,45,12.60
2012,05,19,09,46,12.60
2012,05,19,09,47,12.60
2012,05,19,09,48,12.60
2012,05,19,09,49,12.70
2012,05,19,09,50,12.80
2012,05,19,09,51,12.80
2012,05,19,09,52,12.80
2012,05,19,09,53,12.80
2012,05,19,09,54,12.70
2012,05,19,09,55,12.70
2012,05,19,09,56,12.60
2012,05,19,09,57,12.60
2012,05,19,09,58,12.50
2012,05,19,09,59,12.50
2012,05,19,10,00,12.50
2012,05,19,10,01,12.40
2012,05,19,10,02,12.40
2012,05,19,10,03,12.40
2012,05,19,10,04,12.40
2012,05,19,10,05,12.50
2012,05,19,10,06,12.50
2012,05,19,10,07,12.40
2012,05,19,10,08,12.20
2012,05,19,10,09,12.10
2012,05,19,10,10,12.00
2012,05,19,10,11,12.00
2012,05,19,10,12,11.90
2012,05,19,10,13,11.90
2012,05,19,10,14,11.80
2012,05,19,10,15,11.80
2012,05,19,10,16,11.80
2012,05,19,10,17,11.90
2012,05,19,10,18,11.90
2012,05,19,10,19,11.90
2012,05,19,10,20,11.90
2012,05,19,10,21,11.80
2012,05,19,10,22,11.80
2012,05,19,10,23,11.80
2012,05,19,10,24,11.80
2012,05,19,10,25,11.90
2012,05,19,10,26,12.00
2012,05,19,10,27,12.10
2012,05,19,10,28,12.10
2012,05,19,10,29,12.10
2012,05,19,10,30,12.10
2012,05,19,10,31,12.00
2012,05,19,10,32,11.90
2012,05,19,10,33,12.00
2012,05,19,10,34,12.00
2012,05,19,10,35,12.10
2012,05,19,10,36,12.30
2012,05,19,10,37,12.30
2012,05,19,10,38,12.30
2012,05,19,10,39,12.20
2012,05,19,10,40,12.10
2012,05,19,10,41,11.90
2012,05,19,10,42,11.90
2012,05,19,10,43,11.90
2012,05,19,10,44,12.00
2012,05,19,10,45,12.00
2012,05,19,10,46,11.90
2012,05,19,10,47,11.80
2012,05,19,10,48,11.90
2012,05,19,10,49,11.90
2012,05,19,10,50,11.90
2012,05,19,10,51,11.90
2012,05,19,10,52,11.90
2012,05,19,10,53,12.00
2012,05,19,10,54,12.00
2012,05,19,10,55,11.80
2012,05,19,10,56,11.80
2012,05,19,10,57,11.80
2012,05,19,10,58,11.80
2012,05,19,10,59,11.90
2012,05,19,11,00,11.90
2012,05,19,11,01,11.90
2012,05,19,11,02,11.80
2012,05,19,11,03,11.80
2012,05,19,11,04,11.80
2012,05,19,11,05,11.80
2012,05,19,11,06,11.80
2012,05,19,11,07,11.60
2012,05,19,11,08,11.50
2012,05,19,11,09,11.40
2012,05,19,11,10,11.40
2012,05,19,11,11,11.40
2012,05,19,11,12,11.40
2012,05,19,11,13,11.40
2012,05,19,11,14,11.30
2012,05,19,11,15,11.20
2012,05,19,11,16,11.20
2012,05,19,11,17,11.10
2012,05,19,11,18,11.10
2012,05,19,11,19,11.20
2012,05,19,11,20,11.30
2012,05,19,11,21,11.30
2012,05,19,11,22,11.30
2012,05,19,11,23,11.30
2012,05,19,11,24,11.30
2012,05,19,11,25,11.30
2012,05,19,11,26,11.40
2012,05,19,11,27,11.50
2012,05,19,11,28,11.60
2012,05,19,11,29,11.70
2012,05,19,11,30,11.80
2012,05,19,11,31,12.00
2012,05,19,11,32,12.10
2012,05,19,11,33,12.10
2012,05,19,11,34,12.20
2012,05,19,11,35,12.20
2012,05,19,11,36,12.30
2012,05,19,11,37,12.30
2012,05,19,11,38,12.20
2012,05,19,11,39,12.10
2012,05,19,11,40,12.10
2012,05,19,11,41,12.10
2012,05,19,11,42,12.20
2012,05,19,11,43,12.30
2012,05,19,11,44,12.30
2012,05,19,11,45,12.30
2012,05,19,11,46,12.40
2012,05,19,11,47,12.40
2012,05,19,11,48,12.50
2012,05,19,11,49,12.60
2012,05,19,11,50,12.50
2012,05,19,11,51,12.50
2012,05,19,11,52,12.50
2012,05,19,11,53,12.50
2012,05,19,11,54,12.50
2012,05,19,11,55,12.50
2012,05,19,11,56,12.50
2012,05,19,11,57,12.40
2012,05,19,11,58,12.30
2012,05,19,11,59,12.40
2012,05,19,12,00,12.40
2012,05,19,12,01,12.40
2012,05,19,12,02,12.30
2012,05,19,12,03,12.40
2012,05,19,12,04,12.50
2012,05,19,12,05,12.60
2012,05,19,12,06,12.60
2012,05,19,12,07,12.60
2012,05,19,12,08,12.60
2012,05,19,12,09,12.70
2012,05,19,12,10,12.70
2012,05,19,12,11,12.80
2012,05,19,12,12,12.70
2012,05,19,12,13,12.50
2012,05,19,12,14,12.50
2012,05,19,12,15,12.30
2012,05,19,12,16,12.30
2012,05,19,12,17,12.20
2012,05,19,12,18,12.20
2012,05,19,12,19,12.20
2012,05,19,12,20,12.40
2012,05,19,12,21,12.60
2012,05,19,12,22,12.50
2012,05,19,12,23,12.50
2012,05,19,12,24,12.40
2012,05,19,12,25,12.40
2012,05,19,12,26,12.30
2012,05,19,12,27,12.30
2012,05,19,12,28,12.30
2012,05,19,12,29,12.30
2012,05,19,12,30,12.30
2012,05,19,12,31,12.40
2012,05,19,12,32,12.60
2012,05,19,12,33,12.70
2012,05,19,12,34,12.70
2012,05,19,12,35,12.70
2012,05,19,12,36,12.70
2012,05,19,12,37,12.80
2012,05,19,12,38,12.80
2012,05,19,12,39,12.90
2012,05,19,12,40,13.10
2012,05,19,12,41,13.20
2012,05,19,12,42,13.20
2012,05,19,12,43,13.30
2012,05,19,12,44,13.30
2012,05,19,12,45,13.30
2012,05,19,12,46,13.40
2012,05,19,12,47,13.40
2012,05,19,12,48,13.40
2012,05,19,12,49,13.40
2012,05,19,12,50,13.50
2012,05,19,12,51,13.70
2012,05,19,12,52,13.80
2012,05,19,12,53,14.00
2012,05,19,12,54,14.00
2012,05,19,12,55,13.90
2012,05,19,12,56,13.80
2012,05,19,12,57,13.70
2012,05,19,12,58,13.80
2012,05,19,12,59,13.80
2012,05,19,13,00,13.90
2012,05,19,13,01,13.90
2012,05,19,13,02,14.00
2012,05,19,13,03,14.10
2012,05,19,13,04,14.20
2012,05,19,13,05,14.30
2012,05,19,13,06,14.50
2012,05,19,13,07,14.60
2012,05,19,13,08,14.70
2012,05,19,13,09,14.80
2012,05,19,13,10,15.00
2012,05,19,13,11,14.90
2012,05,19,13,12,14.90
2012,05,19,13,13,14.90
2012,05,19,13,14,14.80
2012,05,19,13,15,14.60
2012,05,19,13,16,14.40
2012,05,19,13,17,14.10
2012,05,19,13,18,13.90
2012,05,19,13,19,13.80
2012,05,19,13,20,13.60
2012,05,19,13,21,13.50
2012,05,19,13,22,13.30
2012,05,19,13,23,13.20
2012,05,19,13,24,13.10
2012,05,19,13,25,13.10
2012,05,19,13,26,13.10
2012,05,19,13,27,13.10
2012,05,19,13,28,13.30
2012,05,19,13,29,13.30
2012,05,19,13,30,13.30
2012,05,19,13,31,13.30
2012,05,19,13,32,13.30
2012,05,19,13,33,13.40
2012,05,19,13,34,13.50
2012,05,19,13,35,13.60
2012,05,19,13,36,13.60
2012,05,19,13,37,13.60
2012,05,19,13,38,13.50
2012,05,19,13,39,13.50
2012,05,19,13,40,13.40
2012,05,19,13,41,13.50
2012,05,19,13,42,13.50
2012,05,19,13,43,13.50
2012,05,19,13,44,13.50
2012,05,19,13,45,13.50
2012,05,19,13,46,13.60
2012,05,19,13,47,13.60
2012,05,19,13,48,13.70
2012,05,19,13,49,13.70
2012,05,19,13,50,13.70
2012,05,19,13,51,13.70
2012,05,19,13,52,13.60
2012,05,19,13,53,13.60
2012,05,19,13,54,13.60
2012,05,19,13,55,13.70
2012,05,19,13,56,13.70
2012,05,19,13,57,13.60
2012,05,19,13,58,13.70
2012,05,19,13,59,13.60
2012,05,19,14,00,13.60
2012,05,19,14,01,13.70
2012,05,19,14,02,13.80
2012,05,19,14,03,14.00
2012,05,19,14,04,13.80
2012,05,19,14,05,13.80
2012,05,19,14,06,13.90
2012,05,19,14,07,13.90
2012,05,19,14,08,13.90
2012,05,19,14,09,13.90
2012,05,19,14,10,13.90
2012,05,19,14,11,13.80
2012,05,19,14,12,13.90
2012,05,19,14,13,13.90
2012,05,19,14,14,14.10
2012,05,19,14,15,14.20
2012,05,19,14,16,14.20
2012,05,19,14,17,14.20
2012,05,19,14,18,14.10
2012,05,19,14,19,14.20
2012,05,19,14,20,14.20
2012,05,19,14,21,14.20
2012,05,19,14,22,14.20
2012,05,19,14,23,14.40
2012,05,19,14,24,14.50
2012,05,19,14,25,14.70
2012,05,19,14,26,14.80
2012,05,19,14,27,14.90
2012,05,19,14,28,14.90
2012,05,19,14,29,15.00
2012,05,19,14,30,15.20
2012,05,19,14,31,15.40
2012,05,19,14,32,15.40
2012,05,19,14,33,15.30
2012,05,19,14,34,15.20
2012,05,19,14,35,15.10
2012,05,19,14,36,15.10
2012,05,19,14,37,15.10
2012,05,19,14,38,15.20
2012,05,19,14,39,15.10
2012,05,19,14,40,15.10
2012,05,19,14,41,15.10
2012,05,19,14,42,15.30
2012,05,19,14,43,15.50
2012,05,19,14,44,15.60
2012,05,19,14,45,15.70
2012,05,19,14,46,15.70
2012,05,19,14,47,15.80
2012,05,19,14,48,15.70
2012,05,19,14,49,15.60
2012,05,19,14,50,15.60
2012,05,19,14,51,15.50
2012,05,19,14,52,15.60
2012,05,19,14,53,15.70
2012,05,19,14,54,15.80
2012,05,19,14,55,15.90
2012,05,19,14,56,15.90
2012,05,19,14,57,15.90
2012,05,19,14,58,15.90
2012,05,19,14,59,15.90
2012,05,19,15,00,15.90
2012,05,19,15,01,15.80
2012,05,19,15,02,15.80
2012,05,19,15,03,15.70
2012,05,19,15,04,15.60
2012,05,19,15,05,15.50
2012,05,19,15,06,15.50
2012,05,19,15,07,15.50
2012,05,19,15,08,15.50
2012,05,19,15,09,15.40
2012,05,19,15,10,15.40
2012,05,19,15,11,15.30
2012,05,19,15,12,15.20
2012,05,19,15,13,15.10
2012,05,19,15,14,15.10
2012,05,19,15,15,14.90
2012,05,19,15,16,14.80
2012,05,19,15,17,14.90
2012,05,19,15,18,14.90
2012,05,19,15,19,15.00
2012,05,19,15,20,15.10
2012,05,19,15,21,15.10
2012,05,19,15,22,15.00
2012,05,19,15,23,15.10
2012,05,19,15,24,15.20
2012,05,19,15,25,15.40
2012,05,19,15,26,15.50
2012,05,19,15,27,15.40
2012,05,19,15,28,15.40
2012,05,19,15,29,15.50
2012,05,19,15,30,15.60
2012,05,19,15,31,15.60
2012,05,19,15,32,15.60
2012,05,19,15,33,15.70
2012,05,19,15,34,15.60
2012,05,19,15,35,15.50
2012,05,19,15,36,15.50
2012,05,19,15,37,15.40
2012,05,19,15,38,15.40
2012,05,19,15,39,15.40
2012,05,19,15,40,15.50
2012,05,19,15,41,15.50
2012,05,19,15,42,15.40
2012,05,19,15,43,15.40
2012,05,19,15,44,15.30
2012,05,19,15,45,15.40
2012,05,19,15,46,15.70
2012,05,19,15,47,15.70
2012,05,19,15,48,15.80
2012,05,19,15,49,15.70
2012,05,19,15,50,15.60
2012,05,19,15,51,15.50
2012,05,19,15,52,15.50
2012,05,19,15,53,15.60
2012,05,19,15,54,15.60
2012,05,19,15,55,15.50
2012,05,19,15,56,15.50
2012,05,19,15,57,15.50
2012,05,19,15,58,15.50
2012,05,19,15,59,15.50
2012,05,19,16,00,15.50
2012,05,19,16,01,15.60
2012,05,19,16,02,15.50
2012,05,19,16,03,15.40
2012,05,19,16,04,15.40
2012,05,19,16,05,15.40
2012,05,19,16,06,15.50
2012,05,19,16,07,15.60
2012,05,19,16,08,15.60
2012,05,19,16,09,15.50
2012,05,19,16,10,15.50
2012,05,19,16,11,15.50
2012,05,19,16,12,15.40
2012,05,19,16,13,15.40
2012,05,19,16,14,15.50
2012,05,19,16,15,15.60
2012,05,19,16,16,15.60
2012,05,19,16,17,15.50
2012,05,19,16,18,15.50
2012,05,19,16,19,15.40
2012,05,19,16,20,15.40
2012,05,19,16,21,15.50
2012,05,19,16,22,15.50
2012,05,19,16,23,15.50
2012,05,19,16,24,15.50
2012,05,19,16,25,15.50
2012,05,19,16,26,15.40
2012,05,19,16,27,15.20
2012,05,19,16,28,15.10
2012,05,19,16,29,15.00
2012,05,19,16,30,15.00
2012,05,19,16,31,14.90
2012,05,19,16,32,14.80
2012,05,19,16,33,14.80
2012,05,19,16,34,14.80
2012,05,19,16,35,14.80
2012,05,19,16,36,14.80
2012,05,19,16,37,14.80
2012,05,19,16,38,14.80
2012,05,19,16,39,14.80
2012,05,19,16,40,14.80
2012,05,19,16,41,15.00
2012,05,19,16,42,15.00
2012,05,19,16,43,15.00
2012,05,19,16,44,15.00
2012,05,19,16,45,14.90
2012,05,19,16,46,14.80
2012,05,19,16,47,14.80
2012,05,19,16,48,14.80
2012,05,19,16,49,14.80
2012,05,19,16,50,14.70
2012,05,19,16,51,14.70
2012,05,19,16,52,14.70
2012,05,19,16,53,14.70
2012,05,19,16,54,14.70
2012,05,19,16,55,14.60
2012,05,19,16,56,14.60
2012,05,19,16,57,14.60
2012,05,19,16,58,14.60
2012,05,19,16,59,14.60
2012,05,19,17,00,14.50
2012,05,19,17,01,14.50
2012,05,19,17,02,14.50
2012,05,19,17,03,14.50
2012,05,19,17,04,14.60
2012,05,19,17,05,14.60
2012,05,19,17,06,14.50
2012,05,19,17,07,14.50
2012,05,19,17,08,14.40
2012,05,19,17,09,14.40
2012,05,19,17,10,14.50
2012,05,19,17,11,14.50
2012,05,19,17,12,14.50
2012,05,19,17,13,14.60
2012,05,19,17,14,14.60
2012,05,19,17,15,14.70
2012,05,19,17,16,14.70
2012,05,19,17,17,14.70
2012,05,19,17,18,14.60
2012,05,19,17,19,14.60
2012,05,19,17,20,14.50
2012,05,19,17,21,14.40
2012,05,19,17,22,14.40
2012,05,19,17,23,14.40
2012,05,19,17,24,14.50
2012,05,19,17,25,14.50
2012,05,19,17,26,14.60
2012,05,19,17,27,14.60
2012,05,19,17,28,14.60
2012,05,19,17,29,14.50
2012,05,19,17,30,14.50
2012,05,19,17,31,14.60
2012,05,19,17,32,14.60
2012,05,19,17,33,14.60
2012,05,19,17,34,14.60
2012,05,19,17,35,14.50
2012,05,19,17,36,14.60
2012,05,19,17,37,14.60
2012,05,19,17,38,14.60
2012,05,19,17,39,14.70
2012,05,19,17,40,14.70
2012,05,19,17,41,14.70